ROMMA est une association bénévole à but non lucratif. Votre soutien est indispensable : ADHERER à ROMMA ou FAIRE un DON

Saint-Léger-les-Mélèzes - (05, Hautes-Alpes)

Champsaur (1245 m)   Longitude: 6° 11' 42" E    Latitude: 44° 38' 38" N Station partenaire n°51
 

Détail journalier du     <<     >>

Température Humidité Vent Dir Rafale Dir. rafale Ensol.
Heure (°C) (%) (km/h) (km/h) (min)
01:00 -3.3914SSO15S0
02:00 -3.5912SSO13SSO0
03:00 -3.6913SSO15SSE0
04:00 -3.6912SSO10S0
05:00 -3.8891S6S0
06:00 -4.1893O24ONO0
07:00 -3.8892S16S0
08:00 -3.9872SSO13SO0
09:00 -3.4861OSO8S0
10:00 -2.68405O0
11:00 -1.1802SSO11S0
12:00 -0.9824SSO13S0
13:00 -0.9816O27OSO50
14:00 -0.88110O40O60
15:00 0.1788O35OSO60
16:00 -0.2787S29SSE60
17:00 -0.6756SSO24OSO60
18:00 -1.9797S27SSE10
19:00 -2.7836SSO23S0
20:00 -3.5865S18S0
21:00 -4.2883S15SO0
22:00 -4.4883S11OSO0
23:00 -4.7892SSO13SSO0
minuit -5.7891SSO8S0

Graphique du 03-02-2019

 

Serveur OMMA